When you browse on this site, cookies collect data to enhance your experience and personalize the content and advertising you see.
Visit our Privacy Policy to learn more. By continuing to use the site, you agree to this use of cookies and data.
  • In Belgien
  • Länderverzeichnis
  • Für 7 Tage
  • Wassertemperatur
  • Satellitenkarten
  • Wetterkarte
  • Widgets
  • user-avatar
    Anmelden

    Stündliche Wetter Vorotynsk

    Heute, 16 Juni, Sonntag

    Zeit Temperatur Niederschläge Wind Luftdruck Luftfeuchtigkeit
    00:00 +18°C° 0 mm 3 m/S 746 mmHg 94%
    01:00 +17°C° 0 mm 3 m/S 746 mmHg 95%
    02:00 +17°C° 0 mm 2 m/S 746 mmHg 95%
    03:00 +17°C° 0 mm 2 m/S 746 mmHg 97%
    04:00 +17°C° 0.1 mm 2 m/S 746 mmHg 96%
    05:00 +17°C° 0.1 mm 3 m/S 746 mmHg 96%
    06:00 +17°C° 0.1 mm 3 m/S 745 mmHg 95%
    07:00 +18°C° 0 mm 3 m/S 746 mmHg 91%
    08:00 +19°C° 0 mm 3 m/S 746 mmHg 88%
    09:00 +19°C° 0 mm 2 m/S 747 mmHg 85%
    10:00 +20°C° 0 mm 2 m/S 746 mmHg 79%
    11:00 +21°C° 0 mm 2 m/S 746 mmHg 74%
    12:00 +23°C° 0 mm 2 m/S 746 mmHg 68%
    13:00 +23°C° 0.3 mm 2 m/S 746 mmHg 67%
    14:00 +24°C° 0.3 mm 1 m/S 746 mmHg 65%
    15:00 +25°C° 0.3 mm 1 m/S 746 mmHg 63%
    16:00 +24°C° 0.3 mm 1 m/S 746 mmHg 66%
    17:00 +24°C° 0.3 mm 2 m/S 746 mmHg 69%
    18:00 +24°C° 0.3 mm 2 m/S 746 mmHg 71%
    19:00 +21°C° 0 mm 2 m/S 746 mmHg 77%
    20:00 +20°C° 0 mm 2 m/S 747 mmHg 82%
    21:00 +19°C° 0 mm 1 m/S 747 mmHg 87%
    22:00 +18°C° 0 mm 2 m/S 747 mmHg 89%
    23:00 +17°C° 0 mm 2 m/S 747 mmHg 90%

    Morgen, 17 Juni, Montag

    Zeit Temperatur Niederschläge Wind Luftdruck Luftfeuchtigkeit
    00:00 +16°C° 0 mm 2 m/S 747 mmHg 91%
    01:00 +16°C° 0 mm 2 m/S 747 mmHg 92%
    02:00 +16°C° 0 mm 1 m/S 748 mmHg 93%
    03:00 +15°C° 0 mm 1 m/S 748 mmHg 93%
    04:00 +16°C° 0 mm 1 m/S 748 mmHg 93%
    05:00 +16°C° 0 mm 1 m/S 748 mmHg 92%
    06:00 +18°C° 0 mm 1 m/S 748 mmHg 91%
    07:00 +19°C° 0 mm 1 m/S 748 mmHg 84%
    08:00 +21°C° 0 mm 1 m/S 748 mmHg 78%
    09:00 +20°C° 0 mm 0 m/S 748 mmHg 72%
    10:00 +23°C° 0 mm 1 m/S 748 mmHg 68%
    11:00 +24°C° 0 mm 1 m/S 748 mmHg 63%
    12:00 +25°C° 0 mm 1 m/S 748 mmHg 58%
    13:00 +25°C° 0.1 mm 1 m/S 748 mmHg 58%
    14:00 +26°C° 0.1 mm 1 m/S 748 mmHg 57%
    15:00 +26°C° 0.1 mm 2 m/S 748 mmHg 56%
    16:00 +26°C° 0.1 mm 2 m/S 748 mmHg 60%
    17:00 +25°C° 0.1 mm 2 m/S 747 mmHg 64%
    18:00 +25°C° 0.1 mm 2 m/S 747 mmHg 67%
    19:00 +24°C° 0 mm 2 m/S 747 mmHg 71%
    20:00 +22°C° 0 mm 1 m/S 747 mmHg 75%
    21:00 +20°C° 0 mm 1 m/S 747 mmHg 79%
    22:00 +20°C° 0 mm 1 m/S 747 mmHg 80%
    23:00 +19°C° 0 mm 1 m/S 747 mmHg 81%

    übermorgen, 18 Juni, Dienstag

    Zeit Temperatur Niederschläge Wind Luftdruck Luftfeuchtigkeit
    00:00 +19°C° 0 mm 1 m/S 747 mmHg 81%
    01:00 +18°C° 0 mm 1 m/S 747 mmHg 83%
    02:00 +18°C° 0 mm 1 m/S 747 mmHg 85%
    03:00 +18°C° 0 mm 1 m/S 747 mmHg 87%
    04:00 +18°C° 0 mm 1 m/S 747 mmHg 87%
    05:00 +19°C° 0 mm 1 m/S 747 mmHg 86%
    06:00 +20°C° 0 mm 1 m/S 747 mmHg 86%
    07:00 +20°C° 0 mm 2 m/S 747 mmHg 82%
    08:00 +21°C° 0 mm 2 m/S 747 mmHg 78%
    09:00 +24°C° 0 mm 3 m/S 747 mmHg 74%
    10:00 +25°C° 0.1 mm 3 m/S 747 mmHg 71%
    11:00 +25°C° 0.1 mm 3 m/S 747 mmHg 68%
    12:00 +26°C° 0.1 mm 3 m/S 747 mmHg 65%
    13:00 +26°C° 0.4 mm 3 m/S 746 mmHg 68%
    14:00 +26°C° 0.4 mm 3 m/S 746 mmHg 71%
    15:00 +26°C° 0.4 mm 3 m/S 745 mmHg 74%
    16:00 +26°C° 0.4 mm 4 m/S 745 mmHg 76%
    17:00 +26°C° 0.4 mm 4 m/S 745 mmHg 79%
    18:00 +25°C° 0.4 mm 4 m/S 745 mmHg 82%
    19:00 +24°C° 0.1 mm 3 m/S 745 mmHg 86%
    20:00 +21°C° 0.1 mm 3 m/S 746 mmHg 90%
    21:00 +20°C° 0.1 mm 3 m/S 746 mmHg 94%
    22:00 +20°C° 0 mm 3 m/S 746 mmHg 94%
    23:00 +19°C° 0 mm 3 m/S 746 mmHg 94%

    19 Juni, Mittwoch

    Zeit Temperatur Niederschläge Wind Luftdruck Luftfeuchtigkeit
    00:00 +19°C° 0 mm 3 m/S 746 mmHg 94%
    01:00 +18°C° 0 mm 3 m/S 746 mmHg 94%
    02:00 +18°C° 0 mm 3 m/S 746 mmHg 94%
    03:00 +17°C° 0 mm 3 m/S 747 mmHg 94%
    04:00 +17°C° 0 mm 3 m/S 747 mmHg 92%
    05:00 +17°C° 0 mm 3 m/S 747 mmHg 91%
    06:00 +18°C° 0 mm 3 m/S 747 mmHg 89%
    07:00 +19°C° 0 mm 3 m/S 748 mmHg 84%
    08:00 +21°C° 0 mm 3 m/S 748 mmHg 78%
    09:00 +24°C° 0 mm 3 m/S 748 mmHg 73%
    10:00 +25°C° 0 mm 3 m/S 748 mmHg 67%
    11:00 +26°C° 0 mm 3 m/S 749 mmHg 61%
    12:00 +27°C° 0 mm 3 m/S 749 mmHg 55%
    13:00 +27°C° 0 mm 3 m/S 749 mmHg 55%
    14:00 +27°C° 0 mm 3 m/S 748 mmHg 56%
    15:00 +27°C° 0 mm 3 m/S 748 mmHg 56%
    16:00 +27°C° 0 mm 3 m/S 748 mmHg 60%
    17:00 +26°C° 0 mm 3 m/S 748 mmHg 64%
    18:00 +26°C° 0 mm 3 m/S 748 mmHg 68%
    19:00 +24°C° 0 mm 3 m/S 749 mmHg 71%
    20:00 +21°C° 0 mm 3 m/S 749 mmHg 75%
    21:00 +19°C° 0 mm 2 m/S 749 mmHg 79%
    22:00 +19°C° 0 mm 2 m/S 749 mmHg 80%
    23:00 +18°C° 0 mm 2 m/S 749 mmHg 81%

    20 Juni, Donnerstag

    Zeit Temperatur Niederschläge Wind Luftdruck Luftfeuchtigkeit
    00:00 +18°C° 0 mm 1 m/S 749 mmHg 82%
    01:00 +18°C° 0 mm 1 m/S 749 mmHg 84%
    02:00 +16°C° 0 mm 1 m/S 749 mmHg 86%
    03:00 +16°C° 0 mm 1 m/S 749 mmHg 88%
    04:00 +17°C° 0 mm 2 m/S 750 mmHg 87%
    05:00 +17°C° 0 mm 2 m/S 750 mmHg 85%
    06:00 +18°C° 0 mm 2 m/S 750 mmHg 84%
    07:00 +19°C° 0 mm 2 m/S 750 mmHg 78%
    08:00 +21°C° 0 mm 2 m/S 750 mmHg 72%
    09:00 +24°C° 0 mm 2 m/S 750 mmHg 66%
    10:00 +25°C° 0 mm 2 m/S 750 mmHg 62%
    11:00 +26°C° 0 mm 2 m/S 751 mmHg 58%
    12:00 +27°C° 0 mm 2 m/S 751 mmHg 53%
    13:00 +28°C° 0 mm 2 m/S 750 mmHg 52%
    14:00 +28°C° 0 mm 2 m/S 750 mmHg 51%
    15:00 +28°C° 0 mm 2 m/S 750 mmHg 50%
    16:00 +28°C° 0 mm 2 m/S 750 mmHg 54%
    17:00 +28°C° 0 mm 2 m/S 750 mmHg 59%
    18:00 +27°C° 0 mm 2 m/S 750 mmHg 63%
    19:00 +26°C° 0 mm 2 m/S 750 mmHg 66%
    20:00 +24°C° 0 mm 2 m/S 750 mmHg 69%
    21:00 +21°C° 0 mm 2 m/S 750 mmHg 71%
    22:00 +20°C° 0 mm 2 m/S 750 mmHg 74%
    23:00 +19°C° 0 mm 2 m/S 750 mmHg 77%

    21 Juni, Freitag

    Zeit Temperatur Niederschläge Wind Luftdruck Luftfeuchtigkeit
    00:00 +19°C° 0 mm 2 m/S 750 mmHg 80%
    01:00 +19°C° 0 mm 1 m/S 751 mmHg 82%
    02:00 +19°C° 0 mm 1 m/S 751 mmHg 84%
    03:00 +19°C° 0 mm 1 m/S 751 mmHg 86%
    04:00 +19°C° 0 mm 1 m/S 751 mmHg 86%
    05:00 +20°C° 0 mm 1 m/S 751 mmHg 85%
    06:00 +20°C° 0 mm 1 m/S 751 mmHg 84%
    07:00 +22°C° 0 mm 1 m/S 751 mmHg 78%
    08:00 +23°C° 0 mm 2 m/S 751 mmHg 72%
    09:00 +25°C° 0 mm 2 m/S 751 mmHg 66%
    10:00 +26°C° 0 mm 2 m/S 752 mmHg 62%
    11:00 +27°C° 0 mm 2 m/S 752 mmHg 57%
    12:00 +28°C° 0 mm 2 m/S 752 mmHg 53%
    13:00 +28°C° 0 mm 2 m/S 751 mmHg 52%
    14:00 +29°C° 0 mm 2 m/S 751 mmHg 51%
    15:00 +29°C° 0 mm 2 m/S 751 mmHg 50%
    16:00 +29°C° 0 mm 2 m/S 751 mmHg 53%
    17:00 +29°C° 0 mm 1 m/S 751 mmHg 56%
    18:00 +29°C° 0 mm 1 m/S 751 mmHg 59%
    19:00 +27°C° 0 mm 1 m/S 751 mmHg 62%
    20:00 +25°C° 0 mm 1 m/S 751 mmHg 65%
    21:00 +23°C° 0 mm 1 m/S 751 mmHg 68%
    22:00 +22°C° 0 mm 1 m/S 751 mmHg 71%
    23:00 +21°C° 0 mm 1 m/S 751 mmHg 73%
    Mehr zeigen